Location: Berkeley
(37.8716°N, 122.2727°W)
Time: 07:46:50
(UTC-07:00)

Envisat - Visible Passes

Search period start: 10 May 2026 00:00
Search period end: 20 May 2026 00:00
Orbit: 761 x 762 km, 98.4° (Epoch: 10 May)

Date Brightness Start Highest point End Pass type
(mag) Time Alt. Az. Time Alt. Az. Time Alt. Az.
10 May 3.3 03:29:20 10° NNE 03:34:20 59° E 03:35:38 45° SSE visible
10 May 4.8 05:09:48 10° NNW 05:12:43 16° WNW 05:15:38 10° W visible
11 May 4.6 02:52:13 10° NE 02:56:21 25° E 02:57:26 23° ESE visible
11 May 3.8 04:30:44 10° N 04:35:17 34° WNW 04:37:33 23° WSW visible
12 May 2.9 03:52:33 10° N 03:57:38 81° WNW 03:59:21 42° SSW visible
13 May 3.9 03:14:58 10° NNE 03:19:47 42° E 03:21:09 35° SE visible
13 May 4.5 04:54:38 10° NNW 04:58:23 21° WNW 05:01:17 13° WSW visible
14 May 5.0 02:38:19 10° NE 02:41:43 18° E 02:42:57 17° ESE visible
14 May 3.4 04:16:01 10° N 04:20:52 47° WNW 04:23:04 29° SW visible
15 May 3.1 03:38:03 10° NNE 03:43:08 73° ESE 03:44:51 41° S visible
15 May 5.0 05:19:13 10° NW 05:21:23 13° WNW 05:23:33 10° W visible
16 May 4.4 03:00:45 10° NE 03:05:12 30° E 03:06:38 26° SE visible
16 May 4.1 04:39:42 10° N 04:43:59 28° WNW 04:46:46 18° WSW visible
17 May 5.4 02:24:54 10° ENE 02:27:03 13° E 02:28:26 11° ESE visible
17 May 3.0 04:01:22 10° N 04:06:24 66° WNW 04:08:33 34° SW visible
18 May 3.5 03:23:39 10° NNE 03:28:35 52° E 03:30:20 36° SSE visible
18 May 4.7 05:03:47 10° NNW 05:07:04 18° WNW 05:10:19 10° WSW visible
19 May 4.8 02:46:41 10° NE 02:50:35 22° E 02:52:06 19° ESE visible
19 May 3.6 04:24:55 10° N 04:29:35 39° WNW 04:32:14 22° SW visible
